Home > Weather > Maceió > Past weeks

Flag for Brazil Weather for the Past 2 Weeks in Maceió, Alagoas, Brazil

Now
86 °F

Scattered clouds.


Feels Like: 91 °F
Forecast: 78 / 85 °F
Wind: 16 mph from Southeast

Location: Maceio Aeroporto

Current Time: Feb 6, 2016 at 11:13:45 AM

Latest Report: Feb 6, 2016 at 10:00 AM


Visibility: N/A

Pressure: 30.01 "Hg

Humidity: 59%

Dew point: 70 °F

Location of MaceióLocation

Historic Weather in Maceió — Graph

°F

Maceió Temperature Yesterday

Maximum temperature yesterday: 88 °F (at 1:00 PM)
Minimum temperature yesterday: 72 °F (at 5:00 AM)
Average temperature yesterday: 80 °F

High & Low Weather Summary for the Past Weeks

 TemperatureHumidityPressure
High90 °F (Jan 28, 12:00 PM)100% (Jan 22, 11:00 AM)30.04 "Hg (Jan 22, 11:00 AM)
Low34 °F (Jan 29, 1:00 PM)55% (Feb 4, 2:00 PM)29.86 "Hg (Jan 22, 3:00 PM)
Average79 °F85%29.96 "Hg
* Reported Jan 22 10:00 AM — Feb 6 10:00 AM, Maceió, Weather by CustomWeather, © 2016

Note: Actual official high and low records may vary slightly from our data, if they occured in-between our weather recording intervals... More about our weather records

Advertising

Maceió Weather History for the Previous 24 Hours

 ConditionsComfort  
Time TempWeatherWind HumidityBarometerVisibility
10:00 AM
Sat, Feb 6
86 °FScattered clouds.16 mph59%30.01 "HgN/A
9:00 AM82 °FScattered clouds.9 mph70%30.01 "HgN/A
8:00 AM81 °FScattered clouds.7 mph79%30.01 "HgN/A
7:00 AM77 °FScattered clouds.3 mph94%30.01 "HgN/A
6:00 AM73 °FScattered clouds.2 mph100%29.98 "HgN/A
5:00 AM73 °FPassing clouds.2 mph100%29.95 "HgN/A
4:00 AM73 °FPassing clouds.2 mph100%29.95 "HgN/A
3:00 AM75 °FPassing clouds.2 mph94%29.95 "HgN/A
2:00 AM73 °FPassing clouds.2 mph100%29.95 "HgN/A
1:00 AM75 °FPassing clouds.2 mph94%29.98 "HgN/A
12:00 AM75 °FPassing clouds.2 mph94%29.98 "HgN/A
11:00 PM
Fri, Feb 5
75 °FPassing clouds.3 mph94%30.01 "HgN/A
10:00 PM77 °FPassing clouds.2 mph89%30.01 "HgN/A
9:00 PM77 °FPassing clouds.7 mph94%30.01 "HgN/A
8:00 PM77 °FPassing clouds.2 mph94%29.98 "HgN/A
7:00 PM79 °FPassing clouds.6 mph89%29.98 "HgN/A
6:00 PM82 °FPartly cloudy.9 mph74%29.98 "HgN/A
5:00 PM81 °FPartly sunny.15 mph84%29.95 "HgN/A
4:00 PM86 °FPartly sunny.12 mph66%29.95 "HgN/A
3:00 PM86 °FPartly sunny.12 mph62%29.95 "HgN/A
2:00 PM86 °FScattered clouds.9 mph66%29.95 "HgN/A
1:00 PM88 °FPartly sunny.13 mph62%29.98 "HgN/A
12:00 PM86 °FScattered clouds.13 mph62%30.01 "HgN/A
11:00 AM86 °FSunny.9 mph62%30.01 "Hg10 mi
Weather by CustomWeather, © 2016

See weather overviewHow to use our weather pages